This demonstration page uses our WeatherBlox Daily Observations layout. Learn more.

Left ArrowRight Arrow

34.74481, -87.66753

Hourly Observations for July 31, 2019

Temp ( °F °C ) Dew Point ( °F °C ) Humidity (%) Winds ( mph kmh ) Pressure ( in mb ) Visibility ( mi km ) Precip ( " mm )
12:53 am 00:53 Mostly Clear 74 23.3 71 21.7 91 91 ESE 5 7 30.02 1017 10 16 0.00 0.00
1:53 am 01:53 Clear 74 23.3 71 21.7 91 91 ENE 3 6 30.02 1017 10 16 0.00 0.00
2:53 am 02:53 Clear 73 22.8 71 21.7 94 94 Calm 30.01 1016 10 16 0.00 0.00
3:53 am 03:53 Partly Cloudy 74 23.3 71 21.7 91 91 Calm 30.01 1016 10 16 0.00 0.00
4:53 am 04:53 Partly Cloudy 71 21.7 69 20.6 94 94 ESE 3 6 30.02 1017 10 16 0.00 0.00
5:03 am 05:03 Mostly Cloudy 72 22.2 70 21.1 94 94 Calm 30.02 1017 10 16 0.00 0.00
5:24 am 05:24 Partly Cloudy 72 22.2 70 21.1 94 94 Calm 30.02 1017 10 16 0.00 0.00
5:40 am 05:40 Mostly Clear 71 21.7 69 20.6 94 94 ESE 3 6 30.03 1017 10 16 0.00 0.00
5:53 am 05:53 Mostly Cloudy 72 22.2 70 21.1 94 94 Calm 30.03 1017 10 16 0.00 0.00
6:09 am 06:09 Mostly Cloudy 72 22.2 70 21.1 94 94 Calm 30.04 1017 10 16 0.00 0.00
6:53 am 06:53 Sunny 73 22.8 71 21.7 94 94 Calm 30.05 1018 10 16 0.00 0.00
7:53 am 07:53 Partly Cloudy 78 25.6 71 21.7 79 79 Calm 30.07 1018 10 16 0.00 0.00
8:03 am 08:03 Mostly Cloudy 77 25 71 21.7 82 82 Calm 30.08 1019 10 16 0.00 0.00
8:30 am 08:30 Mostly Sunny 79 26.1 71 21.7 77 77 Calm 30.08 1018 10 16 0.00 0.00
8:53 am 08:53 Sunny 80 26.7 71 21.7 74 74 Calm 30.08 1019 10 16 0.00 0.00
9:53 am 09:53 Sunny 83 28.3 73 22.8 72 72 Calm 30.09 1019 10 16 0.00 0.00
10:53 am 10:53 Partly Cloudy 84 28.9 72 22.2 67 67 Calm 30.08 1019 10 16 0.00 0.00
11:53 am 11:53 Sunny 88 31.1 71 21.7 57 57 Calm 30.07 1018 10 16 0.00 0.00
12:53 pm 12:53 Partly Cloudy 91 32.8 71 21.7 52 52 Calm 30.06 1018 10 16 0.00 0.00
1:53 pm 13:53 Sunny 92 33.3 68 20 46 46 NW 3 6 30.04 1017 10 16 0.00 0.00
2:53 pm 14:53 Mostly Cloudy 90 32.2 72 22.2 56 56 NNE 7 11 30.02 1017 10 16 0.00 0.00
3:53 pm 15:53 Mostly Cloudy 88 31.1 70 21.1 55 55 NE 5 7 30.00 1016 10 16 0.00 0.00
4:53 pm 16:53 Mostly Sunny 90 32.2 70 21.1 52 52 NNE 8 13 30.00 1016 10 16 0.00 0.00
5:53 pm 17:53 Partly Cloudy 87 30.6 70 21.1 57 57 VRB 5 7 30.01 1016 10 16 0.00 0.00
6:53 pm 18:53 Mostly Sunny 85 29.4 70 21.1 61 61 Calm 30.01 1016 10 16 0.00 0.00
8:53 pm 20:53 Clear 81 27.2 70 21.1 69 69 NNE 5 7 30.01 1016 10 16 0.00 0.00
9:53 pm 21:53 Clear 77 25 71 21.7 82 82 SW 3 6 30.03 1017 10 16 0.00 0.00
10:53 pm 22:53 Clear 76 24.4 71 21.7 85 85 Calm 30.04 1017 10 16 0.00 0.00
11:53 pm 23:53 Clear 74 23.3 71 21.7 91 91 Calm 30.05 1018 10 16 0.00 0.00

Powered by AerisWeather